Regional Weather Roundup
Issued by NWS

Home | Current Version | Previous Version | Text Only | Print | Product List | Glossary On
Versions: 1 2 3 4 5 6 7 8 9 10 11 12 13 14 15 16 17 18 19 20 21 22 23 24 25 26 27 28 29 30 31 32 33 34 35 36 37 38 39 40 41 42 43 44 45 46 47 48 49 50
000
ASUS43 KTOP 011859
RWRKS

WEATHER ROUNDUP FOR KANSAS
NATIONAL WEATHER SERVICE GOODLAND KS
200 PM CDT MON SEP 01 2014

NOTE:  "FAIR" INDICATES FEW OR NO CLOUDS BELOW 12,000 FEET WITH NO
SIGNIFICANT WEATHER AND/OR OBSTRUCTIONS TO VISIBILITY.

KSZ001>006-013>018-027>032-041>047-012000-
NORTHWEST KANSAS

CITY           SKY/WX    TMP DP  RH WIND       PRES   REMARKS
GOODLAND       SUNNY     75  48  38 CALM      30.01F
HAYS           SUNNY     77  61  57 CALM      29.93F
HILL CITY      SUNNY     78  54  43 NW7       29.96S
RUSSELL        CLOUDY    77  62  59 E8        29.91F
$$

KSZ061>065-074>080-084>089-012000-
SOUTHWEST KANSAS

CITY           SKY/WX    TMP DP  RH WIND       PRES   REMARKS
DODGE CITY     CLOUDY    75  62  64 NE14      29.93F
ELKHART          N/A     81  56  42 N5          N/A
GARDEN CITY    SUNNY     81  60  48 NE8       29.94F
GREAT BEND     CLOUDY    72  63  73 NE8       29.93S
LIBERAL        SUNNY     82  63  51 N15       29.93F
$$

KSZ066>073-081>083-090>101-012000-
SOUTHEAST KANSAS

CITY           SKY/WX    TMP DP  RH WIND       PRES   REMARKS
CHANUTE        CLOUDY    79  68  69 S17G24    29.89F
COFFEYVILLE    CLOUDY    79  69  71 S10       29.88F
HUTCHINSON     CLOUDY    78  64  61 E6        29.89F
MEDICINE LODGE   N/A     90  70  51 E8        29.81F HX  95
NEWTON         CLOUDY    75  64  69 CALM      29.93S
PARSONS        CLOUDY    79  68  69 S9G18     29.90S
WICHITA INTL   CLOUDY    82  69  64 VRB7      29.86F
WICHITA JABRA  CLOUDY    79  69  71 S5        29.87F
WINFIELD       MOSUNNY   86  72  62 S12       29.85F
$$

KSZ007>012-019>026-033>040-048>060-102>105-012000-
NORTHEAST KANSAS

CITY           SKY/WX    TMP DP  RH WIND       PRES   REMARKS
CONCORDIA      CLOUDY    76  65  68 N6        29.92F
EMPORIA        CLOUDY    77  67  71 SE10      29.90F
LAWRENCE       CLOUDY   N/A N/A N/A W13       29.91S
MANHATTAN      CLOUDY    77  67  71 W5        29.90F
OLATHE IND     CLOUDY    80  67  64 SW16      29.91F
OLATHE EXE     MOSUNNY   78  68  71 SW9       29.91F
SALINA         CLOUDY    76  65  68 CALM      29.91F
TOPEKA BILLARD CLOUDY    79  67  66 W5        29.91S
TOPEKA FORBES  CLOUDY    77  66  68 SW8       29.91F
$$


USA.gov is the U.S. government's official web portal to all federal, state and local government web resources and services.